Location: Newark
(55.7167°N, 12.5667°E)
Time: 08:52:52
(UTC+00:00)

N. Korean satellite - Pass Details

Date: 13 December 2019
Orbit: 454 x 507 km, 97.2° (Epoch: 26 January)

Event Time Altitude Azimuth Distance (km) Brightness Sun altitude
Rises 15:56:30 0° 166° (SSE) 2,600 10.4 -10.1°
Reaches altitude 10° 15:58:35 10° 166° (SSE) 1,716 9.5 -10.3°
Maximum altitude 16:02:17 85° 253° (WSW) 511 6.7 -10.8°
Drops below altitude 10° 16:05:59 10° 345° (NNW) 1,708 9.2 -11.3°
Sets 16:08:03 0° 346° (NNW) 2,587 10.1 -11.5°
